User: anonymous   Login
Location: Presov
(49.0000°N, 21.2500°E)
Time: 09:24:04
(UTC+02:00)
Language:

Transit 2A - Orbit

View from above orbital plane
View from above orbital plane
View from above satellite
View from above satellite

Ground track
Ground track

The orbit data is extracted from the following two-line orbital elements,

1 00045U 60007A   21109.90087040  .00000003  00000-0  27744-4 0  9994
2 00045  66.6937 293.3106 0247867  92.6033 270.3464 14.33716081109762
Epoch (UTC): 19 April 2021 21:37:15
Eccentricity: 0.0247867
inclination: 66.6937°
perigee height: 602 km
apogee height: 957 km
right ascension of ascending node: 293.3106°
argument of perigee: 92.6033°
revolutions per day: 14.33716081
mean anomaly at epoch: 270.3464°
orbit number at epoch: 10976

The dashed part of the orbit path shows where the satellite is in the earth's shadow,  

DLR